Вернуться в каталог

FENGYUN 1C DEB

АктивенPO
NORAD 32176·DEBRIS·🇨🇳 China

Запущен May 10, 1999 с Taiyuan Satellite Launch Center

Loading…

Ближайшие Пролёты (ближайшие 24 часа)

TLE

СвежийSource: Space-Track

Эпоха: Sep 13, 2026, 10:57 UTC

1 32176U 99025CTW 26256.45683869  .00020153  00000-0  17243-2 0  9994
2 32176  99.3796 344.1174 0023329 244.3464 115.5343 14.97446039655740

Отслеживайте FENGYUN 1C DEB в реальном времени с AllMySat

Download on the App Store